Portada
METAR-TAF:

METAR-TAF

Aeropuertos :

Milford Municipal Airport (Ben and Judy Briscoe Field)

Milford, Utah, Estados Unidos

latitud: 38-25-21N, longitud: 113-00-35W, altitud: 1536 m

Observación

El informe se hizo hace 24 minutos, a las 11:52 UTC
Viento 4 kt del norte
Temperatura 11°C
Humedad 40%
Presión 1016 hPa
Visibilidad: 16.1 km
Cielo despejado

METAR: KMLF 241152Z AUTO 01004KT 10SM CLR 11/M02 A3000 RMK AO2 SLP102 60000 T01111017 10200 20106 53006

Hora: 06:16 (12:16 UTC)


TAF: falta

Observaciones y pronósticos meteorológicos de más de 4000 aeropuertos (mensajes METAR y TAF).

Los puntos amarillos y rojos representan las estaciones disponibles.

Ponga el ratón en el punto deseado para ver el nombre de la estación.

Haga clic para ver las observaciones y los pronósticos meteorológicos.

Para cambiar el mapa : haga clic en los botones verdes con una cruz de color negro para hacer un zoom, en el botón verde con un guión para alejar o en las flechas verdes para mapas adyacentes.


METAR-TAF: